NSS-11

Last updated on Sun Sep 20 2026 00:02:55 GMT+0000 (Coordinated Universal Time)

1 26554U 00059A 26262.43237476 .00000021 00000+0 00000+0 0 9991 2 26554 2.3628 80.1631 0002995 106.1569 143.6893 1.00272738 42232
UTC large
Height (km)
Speed (km/s)
/
Latitude / Longitude
Inclination (degrees)
Orbital Period (minutes)
Azimuth
Elevation
Range (km)
Doppler Factor

Next 0 passes for location: London (51.5072 / 0.1276)

No passes found over London.
NSS-11